Location: Alafon
(8.4500°N, 4.2333°E)
Time: 01:50:25
(UTC+00:00)

Hubble Space Telescope - Pass Details

Date: 05 July 2020
Orbit: 536 x 540 km, 28.5° (Epoch: 06 August)

Event Time Altitude Azimuth Distance (km) Brightness Sun altitude
Rises 18:58:04 0° 241° (WSW) 2,667 4.9 -12.6°
Reaches altitude 10° 19:00:19 10° 242° (WSW) 1,777 3.9 -13.1°
Maximum altitude 19:04:26 87° 329° (NNW) 536 0.7 -14.0°
Enters shadow 19:08:31 10° 60° (ENE) 1,762 3.1 -15.0°
